Torna al catalogo

FENGYUN 1C DEB

AttivoSSO
NORAD 30932·DEBRIS·🇨🇳 China

Lanciato May 10, 1999 da Taiyuan Satellite Launch Center

Loading…

Prossimi Passaggi (prossime 24 ore)

TLE

AggiornatoSource: Space-Track

Epoca: Sep 14, 2026, 07:03 UTC

1 30932U 99025AZW 26257.29383409  .00002948  00000-0  11529-2 0  9995
2 30932  98.9116 200.9485 0052496 211.5362 148.2670 14.29576145  3158

Traccia FENGYUN 1C DEB in tempo reale con AllMySat

Download on the App Store